Tracking 34138 objects as of 15-May-2026
HD Live streaming from Space Station
objects crossing your sky now

STARLINK-36307

Track STARLINK-36307 now!
10-day predictions
STARLINK-36307 is classified as:


NORAD ID: 68306
Int'l Code: 2026-057N
Perigee: 350.3 km
Apogee: 351.4 km
Inclination: 97.3 °
Period: 91.4 minutes
Semi major axis: 6721 km
RCS: Unknown
Launch date: March 20, 2026
Source: United States (US)
Launch site: AIR FORCE WESTERN TEST RANGE (AFWTR)
Your satellite tracking list
Your tracking list is empty




NASA's NSSDC Master Catalog

Two Line Element Set (TLE):
1 68306U 26057N   26135.29237341  .00222059  00000-0  14435-2 0  9990
2 68306  97.2832 261.1045 0000796   1.9954 358.1314 15.75313231  8773
Source of the keplerian elements: AFSPC